Starlink 30138

operational
NORAD ID: 57605 Int'l Des: 2023-119 Owner: SPXS Country: US Constellation: starlink
LEOCIRCULAR

Starlink 30138について

説明を読み込み中...

リアルタイム位置

3D地球を読み込み中...

次回通過

高度履歴

Altitude vs Time

uPlot chart will show altitude changes over time

軌道要素

1 57605U 23119D 26035.04847661 .00000136 00000-0 25152-4 0 9990
2 57605 43.0029 264.5608 0001157 261.2833 98.7879 15.02536657138025
Epoch: Feb 4, 2026 • Age: 12 hours

現在のステータス

高度 562.8 km
速度 7.59 km/s
衛星直下点 42.23°N, 12.46°E
打ち上げ日 Aug 11, 2023
運用期間 2.4 years
タイプ internet

技術仕様

分類 Payload
質量 730.00 kg
乾燥質量 700.00 kg
総質量 730.00 kg
長さ 0.30 m
直径 4.10 m
スパン 29.00 m
形状 Box + pan
製造者 SPXS
バスタイプ Starlink V2M
フェーズステータス In Orbit
所有者/国 SPXS/US

大規模コンステレーション

Loading constellations...